Time,TemperatureF,DewpointF,PressureIn,WindDirection,WindDirectionDegrees,WindSpeedMPH,WindSpeedGustMPH,Humidity,HourlyPrecipIn,Conditions,Clouds,dailyrainin,SoftwareType,DateUTC
2013-01-20 00:00:00,39.6,31.7,29.86,SW,215,1.0,1.0,73,0.00,,,0.00,Wunderground v.1.15,2013-01-20 05:00:00,
2013-01-20 00:10:00,39.6,31.7,29.86,SSW,209,2.0,2.0,73,0.00,,,0.00,Wunderground v.1.15,2013-01-20 05:10:00,
2013-01-20 00:20:00,39.8,31.8,29.85,SW,225,2.0,8.0,73,0.00,,,0.00,Wunderground v.1.15,2013-01-20 05:20:00,
2013-01-20 00:30:00,39.8,31.8,29.85,NW,317,3.0,3.0,73,0.00,,,0.00,Wunderground v.1.15,2013-01-20 05:30:00,
2013-01-20 00:40:00,40.0,32.0,29.84,ENE,68,2.0,2.0,73,0.00,,,0.00,Wunderground v.1.15,2013-01-20 05:40:00,
2013-01-20 00:49:00,40.1,32.1,29.83,SW,223,2.0,3.0,73,0.00,,,0.00,Wunderground v.1.15,2013-01-20 05:49:00,
2013-01-20 01:00:00,40.3,32.3,29.83,SSW,212,2.0,2.0,73,0.00,,,0.00,Wunderground v.1.15,2013-01-20 06:00:00,
2013-01-20 01:10:00,40.6,32.3,29.82,SW,219,4.0,4.0,72,0.00,,,0.00,Wunderground v.1.15,2013-01-20 06:10:00,
2013-01-20 01:20:00,40.5,32.5,29.82,SW,230,3.0,3.0,73,0.00,,,0.00,Wunderground v.1.15,2013-01-20 06:20:00,
2013-01-20 01:30:00,40.6,32.3,29.82,WNW,288,3.0,7.0,72,0.00,,,0.00,Wunderground v.1.15,2013-01-20 06:30:00,
2013-01-20 01:40:00,40.9,32.6,29.81,SSW,211,4.0,6.0,72,0.00,,,0.00,Wunderground v.1.15,2013-01-20 06:40:00,
2013-01-20 01:50:00,41.0,32.3,29.82,WSW,248,3.0,3.0,71,0.00,,,0.00,Wunderground v.1.15,2013-01-20 06:50:00,
2013-01-20 02:00:00,40.9,32.2,29.81,SSW,213,2.0,2.0,71,0.00,,,0.00,Wunderground v.1.15,2013-01-20 07:00:00,
2013-01-20 02:10:00,41.0,32.3,29.81,West,270,1.0,4.0,71,0.00,,,0.00,Wunderground v.1.15,2013-01-20 07:10:00,
2013-01-20 02:20:00,40.9,32.2,29.81,SSW,204,1.0,1.0,71,0.00,,,0.00,Wunderground v.1.15,2013-01-20 07:20:00,
2013-01-20 02:30:00,40.8,32.1,29.80,WNW,301,1.0,1.0,71,0.00,,,0.00,Wunderground v.1.15,2013-01-20 07:30:00,
2013-01-20 02:40:00,40.5,31.8,29.80,West,268,1.0,1.0,71,0.00,,,0.00,Wunderground v.1.15,2013-01-20 07:40:00,
2013-01-20 02:50:00,40.5,31.8,29.78,NNW,335,1.0,3.0,71,0.00,,,0.00,Wunderground v.1.15,2013-01-20 07:50:00,
2013-01-20 03:00:00,40.5,31.8,29.78,SSW,212,2.0,2.0,71,0.00,,,0.00,Wunderground v.1.15,2013-01-20 08:00:00,
2013-01-20 03:10:00,40.4,31.7,29.76,SSW,196,2.0,3.0,71,0.00,,,0.00,Wunderground v.1.15,2013-01-20 08:10:00,
2013-01-20 03:20:00,40.3,31.6,29.77,West,271,2.0,3.0,71,0.00,,,0.00,Wunderground v.1.15,2013-01-20 08:20:00,
2013-01-20 03:30:00,40.1,31.4,29.76,SW,224,2.0,2.0,71,0.00,,,0.00,Wunderground v.1.15,2013-01-20 08:30:00,
2013-01-20 03:40:00,39.9,31.3,29.75,SE,137,3.0,3.0,71,0.00,,,0.00,Wunderground v.1.15,2013-01-20 08:40:00,
2013-01-20 03:50:00,39.8,31.5,29.75,NNE,13,3.0,4.0,72,0.00,,,0.00,Wunderground v.1.15,2013-01-20 08:50:00,
2013-01-20 04:00:00,39.8,31.5,29.74,SW,227,2.0,5.0,72,0.00,,,0.00,Wunderground v.1.15,2013-01-20 09:00:00,
2013-01-20 04:10:00,40.0,31.7,29.73,SW,223,2.0,4.0,72,0.00,,,0.00,Wunderground v.1.15,2013-01-20 09:10:00,
2013-01-20 04:20:00,39.9,31.6,29.72,SW,216,3.0,3.0,72,0.00,,,0.00,Wunderground v.1.15,2013-01-20 09:20:00,
2013-01-20 04:30:00,39.7,31.8,29.72,SSW,194,2.0,2.0,73,0.00,,,0.00,Wunderground v.1.15,2013-01-20 09:30:00,
2013-01-20 04:40:00,39.7,31.8,29.72,SSW,203,3.0,3.0,73,0.00,,,0.00,Wunderground v.1.15,2013-01-20 09:40:00,
2013-01-20 04:50:00,39.5,31.6,29.71,WSW,242,3.0,3.0,73,0.00,,,0.00,Wunderground v.1.15,2013-01-20 09:50:00,
2013-01-20 05:00:00,39.4,31.8,29.71,SW,225,2.0,2.0,74,0.00,,,0.00,Wunderground v.1.15,2013-01-20 10:00:00,
2013-01-20 05:10:00,39.3,31.7,29.70,SSW,200,2.0,6.0,74,0.00,,,0.00,Wunderground v.1.15,2013-01-20 10:10:00,
2013-01-20 05:20:00,39.2,31.9,29.69,SSW,207,3.0,3.0,75,0.00,,,0.00,Wunderground v.1.15,2013-01-20 10:20:00,
2013-01-20 05:30:00,39.1,31.8,29.68,SSE,152,2.0,2.0,75,0.00,,,0.00,Wunderground v.1.15,2013-01-20 10:30:00,
2013-01-20 05:40:00,39.0,31.7,29.67,WSW,237,2.0,2.0,75,0.00,,,0.00,Wunderground v.1.15,2013-01-20 10:40:00,
2013-01-20 05:50:00,39.2,31.9,29.67,SW,219,2.0,2.0,75,0.00,,,0.00,Wunderground v.1.15,2013-01-20 10:50:00,
2013-01-20 06:00:00,39.1,31.8,29.66,SSW,206,3.0,5.0,75,0.00,,,0.00,Wunderground v.1.15,2013-01-20 11:00:00,
2013-01-20 06:10:00,39.1,31.5,29.65,SW,236,3.0,9.0,74,0.00,,,0.00,Wunderground v.1.15,2013-01-20 11:10:00,
2013-01-20 06:20:00,39.2,31.6,29.65,West,261,4.0,5.0,74,0.00,,,0.00,Wunderground v.1.15,2013-01-20 11:20:00,
2013-01-20 06:30:00,38.9,31.6,29.65,West,280,3.0,3.0,75,0.00,,,0.00,Wunderground v.1.15,2013-01-20 11:30:00,
2013-01-20 06:40:00,38.8,31.2,29.64,SW,235,3.0,6.0,74,0.00,,,0.00,Wunderground v.1.15,2013-01-20 11:40:00,
2013-01-20 06:50:00,38.9,31.3,29.65,SSE,165,3.0,3.0,74,0.00,,,0.00,Wunderground v.1.15,2013-01-20 11:50:00,
2013-01-20 07:00:00,38.8,31.2,29.65,SW,219,3.0,3.0,74,0.00,,,0.00,Wunderground v.1.15,2013-01-20 12:00:00,
2013-01-20 07:10:00,39.1,31.5,29.64,SW,223,4.0,4.0,74,0.00,,,0.00,Wunderground v.1.15,2013-01-20 12:10:00,
2013-01-20 07:20:00,38.8,31.2,29.64,NNW,333,3.0,3.0,74,0.00,,,0.00,Wunderground v.1.15,2013-01-20 12:20:00,
2013-01-20 07:30:00,38.9,31.3,29.63,WSW,238,4.0,4.0,74,0.00,,,0.00,Wunderground v.1.15,2013-01-20 12:30:00,
2013-01-20 07:40:00,39.1,31.2,29.63,SW,228,3.0,3.0,73,0.00,,,0.00,Wunderground v.1.15,2013-01-20 12:40:00,
2013-01-20 07:50:00,39.4,31.5,29.62,West,270,4.0,4.0,73,0.00,,,0.00,Wunderground v.1.15,2013-01-20 12:50:00,
2013-01-20 08:00:00,39.8,31.5,29.62,NE,36,3.0,3.0,72,0.00,,,0.00,Wunderground v.1.15,2013-01-20 13:00:00,
2013-01-20 08:10:00,40.1,31.4,29.62,ESE,120,4.0,4.0,71,0.00,,,0.00,Wunderground v.1.15,2013-01-20 13:10:00,
2013-01-20 08:20:00,40.6,31.6,29.62,SE,132,3.0,3.0,70,0.00,,,0.00,Wunderground v.1.15,2013-01-20 13:20:00,
2013-01-20 08:30:00,41.2,31.8,29.62,SSW,206,4.0,4.0,69,0.00,,,0.00,Wunderground v.1.15,2013-01-20 13:30:00,
2013-01-20 08:40:00,41.5,31.4,29.62,West,267,4.0,4.0,67,0.00,,,0.00,Wunderground v.1.15,2013-01-20 13:40:00,
2013-01-20 08:50:00,42.1,31.6,29.62,West,273,3.0,3.0,66,0.00,,,0.00,Wunderground v.1.15,2013-01-20 13:50:00,
2013-01-20 09:00:00,42.7,31.7,29.62,WSW,238,2.0,6.0,65,0.00,,,0.00,Wunderground v.1.15,2013-01-20 14:00:00,
2013-01-20 09:10:00,43.5,31.3,29.62,SW,229,4.0,5.0,62,0.00,,,0.00,Wunderground v.1.15,2013-01-20 14:10:00,
2013-01-20 09:20:00,44.1,31.1,29.61,WSW,245,4.0,4.0,60,0.00,,,0.00,Wunderground v.1.15,2013-01-20 14:20:00,
2013-01-20 09:30:00,44.7,30.8,29.61,SSW,207,4.0,5.0,58,0.00,,,0.00,Wunderground v.1.15,2013-01-20 14:30:00,
2013-01-20 09:40:00,45.4,31.0,29.60,WSW,254,5.0,5.0,57,0.00,,,0.00,Wunderground v.1.15,2013-01-20 14:40:00,
2013-01-20 09:50:00,45.7,30.9,29.60,SSW,204,5.0,5.0,56,0.00,,,0.00,Wunderground v.1.15,2013-01-20 14:50:00,
2013-01-20 10:00:00,46.0,31.2,29.59,WSW,242,4.0,13.0,56,0.00,,,0.00,Wunderground v.1.15,2013-01-20 15:00:00,
2013-01-20 10:10:00,46.5,31.2,29.59,WSW,252,5.0,7.0,55,0.00,,,0.00,Wunderground v.1.15,2013-01-20 15:10:00,
2013-01-20 10:20:00,46.9,31.1,29.59,SW,225,5.0,5.0,54,0.00,,,0.00,Wunderground v.1.15,2013-01-20 15:20:00,
2013-01-20 10:30:00,47.4,31.6,29.59,West,259,3.0,5.0,54,0.00,,,0.00,Wunderground v.1.15,2013-01-20 15:30:00,
2013-01-20 10:40:00,48.2,31.4,29.58,WSW,250,5.0,5.0,52,0.00,,,0.00,Wunderground v.1.15,2013-01-20 15:40:00,
2013-01-20 10:50:00,49.0,31.6,29.56,West,274,4.0,11.0,51,0.00,,,0.00,Wunderground v.1.15,2013-01-20 15:50:00,
2013-01-20 11:00:00,50.0,31.1,29.56,West,259,6.0,9.0,48,0.00,,,0.00,Wunderground v.1.15,2013-01-20 16:00:00,
2013-01-20 11:10:00,50.7,31.7,29.54,SW,217,6.0,6.0,48,0.00,,,0.00,Wunderground v.1.15,2013-01-20 16:10:00,
2013-01-20 11:20:00,51.0,30.9,29.54,NW,325,7.0,7.0,46,0.00,,,0.00,Wunderground v.1.15,2013-01-20 16:20:00,
2013-01-20 11:30:00,51.3,30.7,29.53,WSW,246,7.0,18.0,45,0.00,,,0.00,Wunderground v.1.15,2013-01-20 16:30:00,
2013-01-20 11:40:00,51.5,30.8,29.53,East,93,7.0,7.0,45,0.00,,,0.00,Wunderground v.1.15,2013-01-20 16:40:00,
2013-01-20 11:50:00,51.9,30.6,29.53,NW,313,6.0,9.0,44,0.00,,,0.00,Wunderground v.1.15,2013-01-20 16:50:00,
2013-01-20 12:00:00,51.6,30.4,29.53,NNW,334,7.0,9.0,44,0.00,,,0.00,Wunderground v.1.15,2013-01-20 17:00:00,
2013-01-20 12:10:00,51.5,30.3,29.53,WSW,244,6.0,6.0,44,0.00,,,0.00,Wunderground v.1.15,2013-01-20 17:10:00,
2013-01-20 12:20:00,51.5,30.3,29.54,WNW,284,7.0,7.0,44,0.00,,,0.00,Wunderground v.1.15,2013-01-20 17:20:00,
2013-01-20 12:30:00,51.2,30.0,29.54,NW,319,9.0,9.0,44,0.00,,,0.00,Wunderground v.1.15,2013-01-20 17:30:00,
2013-01-20 12:40:00,50.5,29.9,29.54,SW,217,7.0,13.0,45,0.00,,,0.00,Wunderground v.1.15,2013-01-20 17:40:00,
2013-01-20 12:50:00,49.8,30.4,29.54,SSW,213,7.0,7.0,47,0.00,,,0.00,Wunderground v.1.15,2013-01-20 17:50:00,
2013-01-20 13:00:00,49.5,30.1,29.54,WSW,249,5.0,5.0,47,0.00,,,0.00,Wunderground v.1.15,2013-01-20 18:00:00,
2013-01-20 13:10:00,49.1,30.2,29.55,NNW,330,4.0,4.0,48,0.00,,,0.00,Wunderground v.1.15,2013-01-20 18:10:00,
2013-01-20 13:20:00,48.9,30.6,29.56,NNW,337,5.0,5.0,49,0.00,,,0.00,Wunderground v.1.15,2013-01-20 18:20:00,
2013-01-20 13:30:00,48.1,30.8,29.57,West,265,8.0,11.0,51,0.00,,,0.00,Wunderground v.1.15,2013-01-20 18:30:00,
2013-01-20 13:40:00,46.4,31.1,29.58,West,281,8.0,13.0,55,0.00,,,0.00,Wunderground v.1.15,2013-01-20 18:40:00,
2013-01-20 13:50:00,45.5,31.1,29.59,NW,315,7.0,9.0,57,0.00,,,0.00,Wunderground v.1.15,2013-01-20 18:50:00,
2013-01-20 14:00:00,45.1,30.8,29.59,WSW,247,7.0,7.0,57,0.00,,,0.00,Wunderground v.1.15,2013-01-20 19:00:00,
2013-01-20 14:10:00,45.0,31.5,29.60,WNW,284,5.0,5.0,59,0.00,,,0.00,Wunderground v.1.15,2013-01-20 19:10:00,
2013-01-20 14:20:00,45.0,31.1,29.61,West,265,5.0,5.0,58,0.00,,,0.00,Wunderground v.1.15,2013-01-20 19:20:00,
2013-01-20 14:30:00,44.7,30.4,29.61,North,350,7.0,7.0,57,0.00,,,0.00,Wunderground v.1.15,2013-01-20 19:30:00,
2013-01-20 14:40:00,44.7,30.4,29.62,SW,218,4.0,4.0,57,0.00,,,0.00,Wunderground v.1.15,2013-01-20 19:40:00,
2013-01-20 14:50:00,44.7,28.1,29.62,NW,322,6.0,9.0,52,0.00,,,0.00,Wunderground v.1.15,2013-01-20 19:50:00,
2013-01-20 15:00:00,44.8,27.3,29.62,WNW,284,5.0,5.0,50,0.00,,,0.00,Wunderground v.1.15,2013-01-20 20:00:00,
2013-01-20 15:10:00,45.1,27.6,29.63,WNW,290,5.0,5.0,50,0.00,,,0.00,Wunderground v.1.15,2013-01-20 20:10:00,
2013-01-20 15:20:00,45.1,27.1,29.63,WNW,296,5.0,18.0,49,0.00,,,0.00,Wunderground v.1.15,2013-01-20 20:20:00,
2013-01-20 15:30:00,44.8,25.8,29.63,NNW,331,7.0,7.0,47,0.00,,,0.00,Wunderground v.1.15,2013-01-20 20:30:00,
2013-01-20 15:40:00,44.9,26.4,29.64,West,263,4.0,4.0,48,0.00,,,0.00,Wunderground v.1.15,2013-01-20 20:40:00,
2013-01-20 15:50:00,45.0,24.4,29.64,West,269,5.0,9.0,44,0.00,,,0.00,Wunderground v.1.15,2013-01-20 20:50:00,
2013-01-20 16:00:00,44.5,23.9,29.65,WNW,288,6.0,6.0,44,0.00,,,0.00,Wunderground v.1.15,2013-01-20 21:00:00,
2013-01-20 16:10:00,44.2,24.7,29.65,WSW,256,4.0,4.0,46,0.00,,,0.00,Wunderground v.1.15,2013-01-20 21:10:00,
2013-01-20 16:20:00,43.8,22.2,29.67,NNW,347,5.0,5.0,42,0.00,,,0.00,Wunderground v.1.15,2013-01-20 21:20:00,
2013-01-20 16:30:00,43.3,18.1,29.68,WNW,282,5.0,15.0,36,0.00,,,0.00,Wunderground v.1.15,2013-01-20 21:30:00,
2013-01-20 16:40:00,42.5,16.1,29.69,West,267,7.0,7.0,34,0.00,,,0.00,Wunderground v.1.15,2013-01-20 21:40:00,
2013-01-20 16:50:00,41.8,17.4,29.70,WNW,282,6.0,6.0,37,0.00,,,0.00,Wunderground v.1.15,2013-01-20 21:50:00,
2013-01-20 17:00:00,41.1,18.6,29.71,West,265,5.0,8.0,40,0.00,,,0.00,Wunderground v.1.15,2013-01-20 22:00:00,
2013-01-20 17:10:00,40.1,18.3,29.73,NW,324,5.0,5.0,41,0.00,,,0.00,Wunderground v.1.15,2013-01-20 22:10:00,
2013-01-20 17:20:00,39.3,18.1,29.74,NW,319,5.0,6.0,42,0.00,,,0.00,Wunderground v.1.15,2013-01-20 22:20:00,
2013-01-20 17:30:00,38.2,18.2,29.74,NW,314,7.0,7.0,44,0.00,,,0.00,Wunderground v.1.15,2013-01-20 22:30:00,
2013-01-20 17:40:00,37.7,19.3,29.75,NW,311,7.0,7.0,47,0.00,,,0.00,Wunderground v.1.15,2013-01-20 22:40:00,
2013-01-20 17:50:00,37.1,18.7,29.76,West,281,7.0,9.0,47,0.00,,,0.00,Wunderground v.1.15,2013-01-20 22:50:00,
2013-01-20 18:00:00,36.4,18.1,29.76,West,263,5.0,10.0,47,0.00,,,0.00,Wunderground v.1.15,2013-01-20 23:00:00,
2013-01-20 18:10:00,35.9,17.6,29.77,West,266,6.0,6.0,47,0.00,,,0.00,Wunderground v.1.15,2013-01-20 23:10:00,
2013-01-20 18:20:00,35.6,16.8,29.78,SW,223,6.0,6.0,46,0.00,,,0.00,Wunderground v.1.15,2013-01-20 23:20:00,
2013-01-20 18:30:00,35.1,16.4,29.79,NW,320,5.0,5.0,46,0.00,,,0.00,Wunderground v.1.15,2013-01-20 23:30:00,
2013-01-20 18:40:00,34.7,16.5,29.79,WSW,244,4.0,4.0,47,0.00,,,0.00,Wunderground v.1.15,2013-01-20 23:40:00,
2013-01-20 18:50:00,34.4,15.7,29.80,ENE,75,5.0,5.0,46,0.00,,,0.00,Wunderground v.1.15,2013-01-20 23:50:00,
2013-01-20 19:00:00,34.0,15.4,29.81,WNW,294,5.0,5.0,46,0.00,,,0.00,Wunderground v.1.15,2013-01-21 00:00:00,
2013-01-20 19:10:00,33.7,15.1,29.80,NNE,13,4.0,4.0,46,0.00,,,0.00,Wunderground v.1.15,2013-01-21 00:10:00,
2013-01-20 19:20:00,33.4,13.8,29.81,NW,304,5.0,5.0,44,0.00,,,0.00,Wunderground v.1.15,2013-01-21 00:20:00,
2013-01-20 19:30:00,32.8,14.3,29.81,NNW,338,4.0,4.0,46,0.00,,,0.00,Wunderground v.1.15,2013-01-21 00:30:00,
2013-01-20 19:40:00,32.4,12.9,29.82,WNW,285,6.0,9.0,44,0.00,,,0.00,Wunderground v.1.15,2013-01-21 00:40:00,
2013-01-20 19:50:00,32.0,13.5,29.83,NNW,335,5.0,5.0,46,0.00,,,0.00,Wunderground v.1.15,2013-01-21 00:50:00,
2013-01-20 20:00:00,31.6,12.7,29.83,South,181,5.0,5.0,45,0.00,,,0.00,Wunderground v.1.15,2013-01-21 01:00:00,
2013-01-20 20:10:00,31.3,12.4,29.84,West,271,6.0,12.0,45,0.00,,,0.00,Wunderground v.1.15,2013-01-21 01:10:00,
2013-01-20 20:20:00,31.1,13.2,29.85,West,277,6.0,6.0,47,0.00,,,0.00,Wunderground v.1.15,2013-01-21 01:20:00,
2013-01-20 20:30:00,30.7,11.3,29.85,NNW,334,6.0,7.0,44,0.00,,,0.00,Wunderground v.1.15,2013-01-21 01:30:00,
2013-01-20 20:40:00,30.5,11.7,29.86,SW,230,6.0,6.0,45,0.00,,,0.00,Wunderground v.1.15,2013-01-21 01:40:00,
2013-01-20 20:50:00,30.3,12.0,29.87,NNE,17,5.0,5.0,46,0.00,,,0.00,Wunderground v.1.15,2013-01-21 01:50:00,
2013-01-20 21:00:00,30.1,11.8,29.87,WSW,257,4.0,4.0,46,0.00,,,0.00,Wunderground v.1.15,2013-01-21 02:00:00,
2013-01-20 21:10:00,30.0,11.7,29.88,West,275,6.0,6.0,46,0.00,,,0.00,Wunderground v.1.15,2013-01-21 02:10:00,
2013-01-20 21:20:00,30.0,11.7,29.88,NW,309,6.0,7.0,46,0.00,,,0.00,Wunderground v.1.15,2013-01-21 02:20:00,
2013-01-20 21:30:00,29.9,11.6,29.88,North,5,7.0,7.0,46,0.00,,,0.00,Wunderground v.1.15,2013-01-21 02:30:00,
2013-01-20 21:40:00,29.7,11.4,29.88,NW,304,4.0,6.0,46,0.00,,,0.00,Wunderground v.1.15,2013-01-21 02:40:00,
2013-01-20 21:50:00,29.6,11.3,29.88,NW,323,5.0,5.0,46,0.00,,,0.00,Wunderground v.1.15,2013-01-21 02:50:00,
2013-01-20 22:00:00,29.4,11.6,29.89,NW,309,4.0,4.0,47,0.00,,,0.00,Wunderground v.1.15,2013-01-21 03:00:00,
2013-01-20 22:10:00,29.3,12.0,29.90,WSW,258,4.0,4.0,48,0.00,,,0.00,Wunderground v.1.15,2013-01-21 03:10:00,
2013-01-20 22:20:00,29.2,11.9,29.90,WNW,296,5.0,5.0,48,0.00,,,0.00,Wunderground v.1.15,2013-01-21 03:20:00,
2013-01-20 22:30:00,29.1,11.8,29.90,West,280,4.0,4.0,48,0.00,,,0.00,Wunderground v.1.15,2013-01-21 03:30:00,
2013-01-20 22:40:00,28.9,11.2,29.91,West,266,4.0,4.0,47,0.00,,,0.00,Wunderground v.1.15,2013-01-21 03:40:00,
2013-01-20 22:50:00,28.9,12.1,29.91,WNW,302,4.0,7.0,49,0.00,,,0.00,Wunderground v.1.15,2013-01-21 03:50:00,
2013-01-20 23:00:00,28.9,11.6,29.91,WNW,288,5.0,5.0,48,0.00,,,0.00,Wunderground v.1.15,2013-01-21 04:00:00,
2013-01-20 23:10:00,28.7,12.4,29.91,WNW,290,4.0,4.0,50,0.00,,,0.00,Wunderground v.1.15,2013-01-21 04:10:00,
2013-01-20 23:20:00,28.5,12.2,29.91,NW,308,4.0,12.0,50,0.00,,,0.00,Wunderground v.1.15,2013-01-21 04:20:00,
2013-01-20 23:30:00,28.5,13.1,29.91,NW,319,4.0,4.0,52,0.00,,,0.00,Wunderground v.1.15,2013-01-21 04:30:00,
2013-01-20 23:40:00,28.3,14.2,29.91,WNW,291,2.0,4.0,55,0.00,,,0.00,Wunderground v.1.15,2013-01-21 04:40:00,
2013-01-20 23:50:00,27.9,14.6,29.91,WSW,254,3.0,4.0,57,0.00,,,0.00,Wunderground v.1.15,2013-01-21 04:50:00,